owner,sensor,date,latitude,longitude,vertical_datum,wind_speed,wind_to_direction,wind_speed_of_gust,qcFlag 
COMPS,ioos:station:USF.COMPS:ARP:1,2017-07-01T00:00:00Z,28.4330,-82.6670,10.0,1.64,282.87,2.54,'1111122,1111122,1111122' 
COMPS,ioos:station:USF.COMPS:ARP:1,2017-07-01T00:06:00Z,28.4330,-82.6670,10.0,1.38,286.8,2.05,'1111122,1111122,1111122' 
COMPS,ioos:station:USF.COMPS:ARP:1,2017-07-01T00:12:00Z,28.4330,-82.6670,10.0,1.27,179.01,7.64,'1111122,1111122,1111122' 
COMPS,ioos:station:USF.COMPS:ARP:1,2017-07-01T00:18:00Z,28.4330,-82.6670,10.0,2.92,144.69,5.78,'1111122,1111122,1111122' 
COMPS,ioos:station:USF.COMPS:ARP:1,2017-07-01T00:24:00Z,28.4330,-82.6670,10.0,2.86,131.36,6.37,'1111122,1111122,1111122' 
COMPS,ioos:station:USF.COMPS:ARP:1,2017-07-01T00:30:00Z,28.4330,-82.6670,10.0,2.98,137.47,5.58,'1111122,1111122,1111122' 
COMPS,ioos:station:USF.COMPS:ARP:1,2017-07-01T00:36:00Z,28.4330,-82.6670,10.0,2.75,147.42,6.17,'1111122,1111122,1111122' 
COMPS,ioos:station:USF.COMPS:ARP:1,2017-07-01T00:42:00Z,28.4330,-82.6670,10.0,2.27,135.39,6.66,'1111122,1111122,1111122' 
COMPS,ioos:station:USF.COMPS:ARP:1,2017-07-01T00:48:00Z,28.4330,-82.6670,10.0,2.23,151.38,3.72,'1111122,1111122,1111122' 
COMPS,ioos:station:USF.COMPS:ARP:1,2017-07-01T00:54:00Z,28.4330,-82.6670,10.0,1.78,164.6,3.91,'1111122,1111122,1111122' 
COMPS,ioos:station:USF.COMPS:ARP:1,2017-07-01T01:00:00Z,28.4330,-82.6670,10.0,1.87,134.16,3.91,'1111122,1111122,1111122' 
COMPS,ioos:station:USF.COMPS:ARP:1,2017-07-01T01:06:00Z,28.4330,-82.6670,10.0,1.86,164.45,3.91,'1111122,1111122,1111122' 
COMPS,ioos:station:USF.COMPS:ARP:1,2017-07-01T01:12:00Z,28.4330,-82.6670,10.0,1.37,161.29,2.84,'1111122,1111122,1111122' 
COMPS,ioos:station:USF.COMPS:ARP:1,2017-07-01T01:18:00Z,28.4330,-82.6670,10.0,1.12,131.17,2.15,'1111122,1111122,1111122' 
COMPS,ioos:station:USF.COMPS:ARP:1,2017-07-01T01:24:00Z,28.4330,-82.6670,10.0,0.9,150.21,1.66,'1111122,1111122,1111122' 
COMPS,ioos:station:USF.COMPS:ARP:1,2017-07-01T01:30:00Z,28.4330,-82.6670,10.0,0.86,185.73,1.76,'1111122,1111122,1111122' 
COMPS,ioos:station:USF.COMPS:ARP:1,2017-07-01T01:36:00Z,28.4330,-82.6670,10.0,0.79,148.69,2.15,'1111122,1111122,1111122' 
COMPS,ioos:station:USF.COMPS:ARP:1,2017-07-01T01:42:00Z,28.4330,-82.6670,10.0,0.68,116.45,1.46,'1111122,1111122,1111122' 
COMPS,ioos:station:USF.COMPS:ARP:1,2017-07-01T01:48:00Z,28.4330,-82.6670,10.0,1.44,69.73,2.15,'1111122,1111122,1111122' 
COMPS,ioos:station:USF.COMPS:ARP:1,2017-07-01T01:54:00Z,28.4330,-82.6670,10.0,0.8,80.32,1.56,'1111122,1111122,1111122' 
COMPS,ioos:station:USF.COMPS:ARP:1,2017-07-01T02:00:00Z,28.4330,-82.6670,10.0,0.31,130.06,0.88,'1111122,1111122,1111122' 
COMPS,ioos:station:USF.COMPS:ARP:1,2017-07-01T02:06:00Z,28.4330,-82.6670,10.0,0.29,143.86,0.78,'1111122,1111122,1111122' 
COMPS,ioos:station:USF.COMPS:ARP:1,2017-07-01T02:12:00Z,28.4330,-82.6670,10.0,0.78,83.49,1.17,'1111122,1111122,1111122' 
COMPS,ioos:station:USF.COMPS:ARP:1,2017-07-01T02:18:00Z,28.4330,-82.6670,10.0,0.79,92.71,1.17,'1111122,1111122,1111122' 
COMPS,ioos:station:USF.COMPS:ARP:1,2017-07-01T02:24:00Z,28.4330,-82.6670,10.0,0.84,90.34,1.27,'1111122,1111122,1111122' 
COMPS,ioos:station:USF.COMPS:ARP:1,2017-07-01T02:30:00Z,28.4330,-82.6670,10.0,0.62,123.98,1.07,'1111122,1111122,1111122' 
COMPS,ioos:station:USF.COMPS:ARP:1,2017-07-01T02:36:00Z,28.4330,-82.6670,10.0,0.37,172.36,1.07,'1111122,1111122,1111122' 
COMPS,ioos:station:USF.COMPS:ARP:1,2017-07-01T02:42:00Z,28.4330,-82.6670,10.0,0.89,89.15,1.46,'1111122,1111122,1111122' 
COMPS,ioos:station:USF.COMPS:ARP:1,2017-07-01T02:48:00Z,28.4330,-82.6670,10.0,1.24,93.5,1.66,'1111122,1111122,1111122' 
COMPS,ioos:station:USF.COMPS:ARP:1,2017-07-01T02:54:00Z,28.4330,-82.6670,10.0,0.99,123.97,1.86,'1111122,1111122,1111122' 
COMPS,ioos:station:USF.COMPS:ARP:1,2017-07-01T03:00:00Z,28.4330,-82.6670,10.0,0.69,142.82,1.37,'1111122,1111122,1111122' 
COMPS,ioos:station:USF.COMPS:ARP:1,2017-07-01T03:06:00Z,28.4330,-82.6670,10.0,0.91,98.9,1.76,'1111122,1111122,1111122' 
COMPS,ioos:station:USF.COMPS:ARP:1,2017-07-01T03:12:00Z,28.4330,-82.6670,10.0,1.33,107.47,1.95,'1111122,1111122,1111122' 
COMPS,ioos:station:USF.COMPS:ARP:1,2017-07-01T03:18:00Z,28.4330,-82.6670,10.0,0.97,134.13,1.86,'1111122,1111122,1111122' 
COMPS,ioos:station:USF.COMPS:ARP:1,2017-07-01T03:24:00Z,28.4330,-82.6670,10.0,1.25,112.96,1.95,'1111122,1111122,1111122' 
COMPS,ioos:station:USF.COMPS:ARP:1,2017-07-01T03:30:00Z,28.4330,-82.6670,10.0,1.17,132.54,2.05,'1111122,1111122,1111122' 
COMPS,ioos:station:USF.COMPS:ARP:1,2017-07-01T03:36:00Z,28.4330,-82.6670,10.0,1.04,152.34,1.56,'1111122,1111122,1111122' 
COMPS,ioos:station:USF.COMPS:ARP:1,2017-07-01T03:42:00Z,28.4330,-82.6670,10.0,1.31,110.42,2.15,'1111122,1111122,1111122' 
COMPS,ioos:station:USF.COMPS:ARP:1,2017-07-01T03:48:00Z,28.4330,-82.6670,10.0,0.86,137.36,1.66,'1111122,1111122,1111122' 
COMPS,ioos:station:USF.COMPS:ARP:1,2017-07-01T03:54:00Z,28.4330,-82.6670,10.0,1.6,115.88,3.23,'1111122,1111122,1111122' 
COMPS,ioos:station:USF.COMPS:ARP:1,2017-07-01T04:00:00Z,28.4330,-82.6670,10.0,1.73,113.37,2.93,'1111122,1111122,1111122' 
COMPS,ioos:station:USF.COMPS:ARP:1,2017-07-01T04:06:00Z,28.4330,-82.6670,10.0,1.56,118.42,3.03,'1111122,1111122,1111122' 
COMPS,ioos:station:USF.COMPS:ARP:1,2017-07-01T04:12:00Z,28.4330,-82.6670,10.0,1.96,113.47,2.93,'1111122,1111122,1111122' 
COMPS,ioos:station:USF.COMPS:ARP:1,2017-07-01T04:18:00Z,28.4330,-82.6670,10.0,1.92,115.85,2.93,'1111122,1111122,1111122' 
COMPS,ioos:station:USF.COMPS:ARP:1,2017-07-01T04:24:00Z,28.4330,-82.6670,10.0,1.36,115.44,2.05,'1111122,1111122,1111122' 
COMPS,ioos:station:USF.COMPS:ARP:1,2017-07-01T04:30:00Z,28.4330,-82.6670,10.0,0.99,121.4,2.15,'1111122,1111122,1111122' 
COMPS,ioos:station:USF.COMPS:ARP:1,2017-07-01T04:36:00Z,28.4330,-82.6670,10.0,1.04,109.41,1.76,'1111122,1111122,1111122' 
COMPS,ioos:station:USF.COMPS:ARP:1,2017-07-01T04:42:00Z,28.4330,-82.6670,10.0,0.97,111.77,1.66,'1111122,1111122,1111122' 
COMPS,ioos:station:USF.COMPS:ARP:1,2017-07-01T04:48:00Z,28.4330,-82.6670,10.0,1.14,111.27,2.15,'1111122,1111122,1111122' 
COMPS,ioos:station:USF.COMPS:ARP:1,2017-07-01T04:54:00Z,28.4330,-82.6670,10.0,1.26,114.43,2.05,'1111122,1111122,1111122' 
COMPS,ioos:station:USF.COMPS:ARP:1,2017-07-01T05:00:00Z,28.4330,-82.6670,10.0,1.04,111.52,1.66,'1111122,1111122,1111122' 
COMPS,ioos:station:USF.COMPS:ARP:1,2017-07-01T05:06:00Z,28.4330,-82.6670,10.0,1.26,101.86,1.56,'1111122,1111122,1111122' 
COMPS,ioos:station:USF.COMPS:ARP:1,2017-07-01T05:12:00Z,28.4330,-82.6670,10.0,1.26,116.97,1.76,'1111122,1111122,1111122' 
COMPS,ioos:station:USF.COMPS:ARP:1,2017-07-01T05:18:00Z,28.4330,-82.6670,10.0,1.6,107.63,2.25,'1111122,1111122,1111122' 
COMPS,ioos:station:USF.COMPS:ARP:1,2017-07-01T05:24:00Z,28.4330,-82.6670,10.0,1.88,108.96,3.03,'1111122,1111122,1111122' 
COMPS,ioos:station:USF.COMPS:ARP:1,2017-07-01T05:30:00Z,28.4330,-82.6670,10.0,1.35,116.82,2.15,'1111122,1111122,1111122' 
COMPS,ioos:station:USF.COMPS:ARP:1,2017-07-01T05:36:00Z,28.4330,-82.6670,10.0,1.33,118.77,2.35,'1111122,1111122,1111122' 
COMPS,ioos:station:USF.COMPS:ARP:1,2017-07-01T05:42:00Z,28.4330,-82.6670,10.0,1.41,112.79,2.25,'1111122,1111122,1111122' 
COMPS,ioos:station:USF.COMPS:ARP:1,2017-07-01T05:48:00Z,28.4330,-82.6670,10.0,1.36,122.55,1.95,'1111122,1111122,1111122' 
COMPS,ioos:station:USF.COMPS:ARP:1,2017-07-01T05:54:00Z,28.4330,-82.6670,10.0,1.08,124.75,1.86,'1111122,1111122,1111122' 
COMPS,ioos:station:USF.COMPS:ARP:1,2017-07-01T06:00:00Z,28.4330,-82.6670,10.0,1.14,127.57,2.05,'1111122,1111122,1111122' 
COMPS,ioos:station:USF.COMPS:ARP:1,2017-07-01T06:06:00Z,28.4330,-82.6670,10.0,1.23,113.74,2.05,'1111122,1111122,1111122' 
COMPS,ioos:station:USF.COMPS:ARP:1,2017-07-01T06:12:00Z,28.4330,-82.6670,10.0,1.35,110.97,2.05,'1111122,1111122,1111122' 
COMPS,ioos:station:USF.COMPS:ARP:1,2017-07-01T06:18:00Z,28.4330,-82.6670,10.0,1.34,110.67,2.25,'1111122,1111122,1111122' 
COMPS,ioos:station:USF.COMPS:ARP:1,2017-07-01T06:24:00Z,28.4330,-82.6670,10.0,1.3,109.59,2.35,'1111122,1111122,1111122' 
COMPS,ioos:station:USF.COMPS:ARP:1,2017-07-01T06:30:00Z,28.4330,-82.6670,10.0,1.45,109.81,2.25,'1111122,1111122,1111122' 
COMPS,ioos:station:USF.COMPS:ARP:1,2017-07-01T06:36:00Z,28.4330,-82.6670,10.0,1.51,114.54,2.35,'1111122,1111122,1111122' 
COMPS,ioos:station:USF.COMPS:ARP:1,2017-07-01T06:42:00Z,28.4330,-82.6670,10.0,1.36,117.32,2.64,'1111122,1111122,1111122' 
COMPS,ioos:station:USF.COMPS:ARP:1,2017-07-01T06:48:00Z,28.4330,-82.6670,10.0,0.81,123.64,1.56,'1111122,1111122,1111122' 
COMPS,ioos:station:USF.COMPS:ARP:1,2017-07-01T06:54:00Z,28.4330,-82.6670,10.0,1.05,117.59,2.15,'1111122,1111122,1111122' 
COMPS,ioos:station:USF.COMPS:ARP:1,2017-07-01T07:00:00Z,28.4330,-82.6670,10.0,1.13,118.23,1.76,'1111122,1111122,1111122' 
COMPS,ioos:station:USF.COMPS:ARP:1,2017-07-01T07:06:00Z,28.4330,-82.6670,10.0,1.17,111.81,1.95,'1111122,1111122,1111122' 
COMPS,ioos:station:USF.COMPS:ARP:1,2017-07-01T07:12:00Z,28.4330,-82.6670,10.0,0.89,120.69,1.66,'1111122,1111122,1111122' 
COMPS,ioos:station:USF.COMPS:ARP:1,2017-07-01T07:18:00Z,28.4330,-82.6670,10.0,0.97,116.79,1.86,'1111122,1111122,1111122' 
COMPS,ioos:station:USF.COMPS:ARP:1,2017-07-01T07:24:00Z,28.4330,-82.6670,10.0,1.6,109.09,2.35,'1111122,1111122,1111122' 
COMPS,ioos:station:USF.COMPS:ARP:1,2017-07-01T07:30:00Z,28.4330,-82.6670,10.0,1.46,108.48,2.15,'1111122,1111122,1111122' 
COMPS,ioos:station:USF.COMPS:ARP:1,2017-07-01T07:36:00Z,28.4330,-82.6670,10.0,1.12,125.96,2.25,'1111122,1111122,1111122' 
COMPS,ioos:station:USF.COMPS:ARP:1,2017-07-01T07:42:00Z,28.4330,-82.6670,10.0,1.31,130.41,2.54,'1111122,1111122,1111122' 
COMPS,ioos:station:USF.COMPS:ARP:1,2017-07-01T07:48:00Z,28.4330,-82.6670,10.0,1.18,130.28,2.64,'1111122,1111122,1111122' 
COMPS,ioos:station:USF.COMPS:ARP:1,2017-07-01T07:54:00Z,28.4330,-82.6670,10.0,1.23,120.97,2.25,'1111122,1111122,1111122' 
COMPS,ioos:station:USF.COMPS:ARP:1,2017-07-01T08:00:00Z,28.4330,-82.6670,10.0,1.03,131.13,1.86,'1111122,1111122,1111122' 
COMPS,ioos:station:USF.COMPS:ARP:1,2017-07-01T08:06:00Z,28.4330,-82.6670,10.0,1.35,139.63,2.45,'1111122,1111122,1111122' 
COMPS,ioos:station:USF.COMPS:ARP:1,2017-07-01T08:12:00Z,28.4330,-82.6670,10.0,1.06,147.58,2.15,'1111122,1111122,1111122' 
COMPS,ioos:station:USF.COMPS:ARP:1,2017-07-01T08:18:00Z,28.4330,-82.6670,10.0,1.04,133.45,2.15,'1111122,1111122,1111122' 
COMPS,ioos:station:USF.COMPS:ARP:1,2017-07-01T08:24:00Z,28.4330,-82.6670,10.0,1.06,136.22,2.35,'1111122,1111122,1111122' 
COMPS,ioos:station:USF.COMPS:ARP:1,2017-07-01T08:30:00Z,28.4330,-82.6670,10.0,1.14,136.72,1.95,'1111122,1111122,1111122' 
COMPS,ioos:station:USF.COMPS:ARP:1,2017-07-01T08:36:00Z,28.4330,-82.6670,10.0,1.05,126.46,2.15,'1111122,1111122,1111122' 
COMPS,ioos:station:USF.COMPS:ARP:1,2017-07-01T08:42:00Z,28.4330,-82.6670,10.0,1.09,132.95,2.35,'1111122,1111122,1111122' 
COMPS,ioos:station:USF.COMPS:ARP:1,2017-07-01T08:48:00Z,28.4330,-82.6670,10.0,0.9,121.1,1.86,'1111122,1111122,1111122' 
COMPS,ioos:station:USF.COMPS:ARP:1,2017-07-01T08:54:00Z,28.4330,-82.6670,10.0,0.92,116.89,1.66,'1111122,1111122,1111122' 
COMPS,ioos:station:USF.COMPS:ARP:1,2017-07-01T09:00:00Z,28.4330,-82.6670,10.0,0.9,116.59,1.46,'1111122,1111122,1111122' 
COMPS,ioos:station:USF.COMPS:ARP:1,2017-07-01T09:06:00Z,28.4330,-82.6670,10.0,0.76,130.32,1.46,'1111122,1111122,1111122' 
COMPS,ioos:station:USF.COMPS:ARP:1,2017-07-01T09:12:00Z,28.4330,-82.6670,10.0,0.78,123.37,1.46,'1111122,1111122,1111122' 
COMPS,ioos:station:USF.COMPS:ARP:1,2017-07-01T09:18:00Z,28.4330,-82.6670,10.0,0.91,124.11,1.66,'1111122,1111122,1111122' 
COMPS,ioos:station:USF.COMPS:ARP:1,2017-07-01T09:24:00Z,28.4330,-82.6670,10.0,1.16,112.93,2.05,'1111122,1111122,1111122' 
COMPS,ioos:station:USF.COMPS:ARP:1,2017-07-01T09:30:00Z,28.4330,-82.6670,10.0,0.85,114.9,1.37,'1111122,1111122,1111122' 
COMPS,ioos:station:USF.COMPS:ARP:1,2017-07-01T09:36:00Z,28.4330,-82.6670,10.0,0.74,132.73,1.56,'1111122,1111122,1111122' 
COMPS,ioos:station:USF.COMPS:ARP:1,2017-07-01T09:42:00Z,28.4330,-82.6670,10.0,1.05,121.41,2.05,'1111122,1111122,1111122' 
COMPS,ioos:station:USF.COMPS:ARP:1,2017-07-01T09:48:00Z,28.4330,-82.6670,10.0,0.85,124.93,1.56,'1111122,1111122,1111122' 
COMPS,ioos:station:USF.COMPS:ARP:1,2017-07-01T09:54:00Z,28.4330,-82.6670,10.0,0.85,129.18,1.66,'1111122,1111122,1111122' 
COMPS,ioos:station:USF.COMPS:ARP:1,2017-07-01T10:00:00Z,28.4330,-82.6670,10.0,0.91,135.98,2.25,'1111122,1111122,1111122' 
COMPS,ioos:station:USF.COMPS:ARP:1,2017-07-01T10:06:00Z,28.4330,-82.6670,10.0,1.13,135.03,2.74,'1111122,1111122,1111122' 
COMPS,ioos:station:USF.COMPS:ARP:1,2017-07-01T10:12:00Z,28.4330,-82.6670,10.0,1.06,132.63,1.95,'1111122,1111122,1111122' 
COMPS,ioos:station:USF.COMPS:ARP:1,2017-07-01T10:18:00Z,28.4330,-82.6670,10.0,1.12,132.02,2.54,'1111122,1111122,1111122' 
COMPS,ioos:station:USF.COMPS:ARP:1,2017-07-01T10:24:00Z,28.4330,-82.6670,10.0,1.02,114.44,1.66,'1111122,1111122,1111122' 
COMPS,ioos:station:USF.COMPS:ARP:1,2017-07-01T10:30:00Z,28.4330,-82.6670,10.0,1.41,110.36,2.35,'1111122,1111122,1111122' 
COMPS,ioos:station:USF.COMPS:ARP:1,2017-07-01T10:36:00Z,28.4330,-82.6670,10.0,1.39,109.0,2.25,'1111122,1111122,1111122' 
COMPS,ioos:station:USF.COMPS:ARP:1,2017-07-01T10:42:00Z,28.4330,-82.6670,10.0,1.43,107.49,1.95,'1111122,1111122,1111122' 
COMPS,ioos:station:USF.COMPS:ARP:1,2017-07-01T10:48:00Z,28.4330,-82.6670,10.0,1.21,109.11,1.86,'1111122,1111122,1111122' 
COMPS,ioos:station:USF.COMPS:ARP:1,2017-07-01T10:54:00Z,28.4330,-82.6670,10.0,0.83,113.85,1.56,'1111122,1111122,1111122' 
COMPS,ioos:station:USF.COMPS:ARP:1,2017-07-01T11:00:00Z,28.4330,-82.6670,10.0,1.36,109.1,2.15,'1111122,1111122,1111122' 
COMPS,ioos:station:USF.COMPS:ARP:1,2017-07-01T11:06:00Z,28.4330,-82.6670,10.0,1.03,114.82,2.15,'1111122,1111122,1111122' 
COMPS,ioos:station:USF.COMPS:ARP:1,2017-07-01T11:12:00Z,28.4330,-82.6670,10.0,1.9,107.78,2.84,'1111122,1111122,1111122' 
COMPS,ioos:station:USF.COMPS:ARP:1,2017-07-01T11:18:00Z,28.4330,-82.6670,10.0,1.69,110.88,2.45,'1111122,1111122,1111122' 
COMPS,ioos:station:USF.COMPS:ARP:1,2017-07-01T11:24:00Z,28.4330,-82.6670,10.0,1.23,113.7,1.95,'1111122,1111122,1111122' 
COMPS,ioos:station:USF.COMPS:ARP:1,2017-07-01T11:30:00Z,28.4330,-82.6670,10.0,1.03,126.95,2.05,'1111122,1111122,1111122' 
COMPS,ioos:station:USF.COMPS:ARP:1,2017-07-01T11:36:00Z,28.4330,-82.6670,10.0,1.17,121.57,1.76,'1111122,1111122,1111122' 
COMPS,ioos:station:USF.COMPS:ARP:1,2017-07-01T11:42:00Z,28.4330,-82.6670,10.0,0.95,126.56,1.86,'1111122,1111122,1111122' 
COMPS,ioos:station:USF.COMPS:ARP:1,2017-07-01T11:48:00Z,28.4330,-82.6670,10.0,1.23,128.79,1.95,'1111122,1111122,1111122' 
COMPS,ioos:station:USF.COMPS:ARP:1,2017-07-01T11:54:00Z,28.4330,-82.6670,10.0,0.83,129.78,1.76,'1111122,1111122,1111122' 
COMPS,ioos:station:USF.COMPS:ARP:1,2017-07-01T12:00:00Z,28.4330,-82.6670,10.0,0.87,121.34,1.95,'1111122,1111122,1111122' 
COMPS,ioos:station:USF.COMPS:ARP:1,2017-07-01T12:06:00Z,28.4330,-82.6670,10.0,1.01,121.56,1.86,'1111122,1111122,1111122' 
COMPS,ioos:station:USF.COMPS:ARP:1,2017-07-01T12:12:00Z,28.4330,-82.6670,10.0,1.06,126.5,2.15,'1111122,1111122,1111122' 
COMPS,ioos:station:USF.COMPS:ARP:1,2017-07-01T12:18:00Z,28.4330,-82.6670,10.0,1.07,132.47,1.86,'1111122,1111122,1111122' 
COMPS,ioos:station:USF.COMPS:ARP:1,2017-07-01T12:24:00Z,28.4330,-82.6670,10.0,1.08,122.4,2.25,'1111122,1111122,1111122' 
COMPS,ioos:station:USF.COMPS:ARP:1,2017-07-01T12:30:00Z,28.4330,-82.6670,10.0,0.59,132.07,1.56,'1111122,1111122,1111122' 
COMPS,ioos:station:USF.COMPS:ARP:1,2017-07-01T12:36:00Z,28.4330,-82.6670,10.0,0.92,115.65,2.05,'1111122,1111122,1111122' 
COMPS,ioos:station:USF.COMPS:ARP:1,2017-07-01T12:42:00Z,28.4330,-82.6670,10.0,0.74,113.09,1.46,'1111122,1111122,1111122' 
COMPS,ioos:station:USF.COMPS:ARP:1,2017-07-01T12:48:00Z,28.4330,-82.6670,10.0,0.79,104.17,1.86,'1111122,1111122,1111122' 
COMPS,ioos:station:USF.COMPS:ARP:1,2017-07-01T12:54:00Z,28.4330,-82.6670,10.0,0.78,117.3,1.46,'1111122,1111122,1111122' 
COMPS,ioos:station:USF.COMPS:ARP:1,2017-07-01T13:00:00Z,28.4330,-82.6670,10.0,0.89,150.92,1.76,'1111122,1111122,1111122' 
COMPS,ioos:station:USF.COMPS:ARP:1,2017-07-01T13:06:00Z,28.4330,-82.6670,10.0,0.73,163.48,1.86,'1111122,1111122,1111122' 
COMPS,ioos:station:USF.COMPS:ARP:1,2017-07-01T13:12:00Z,28.4330,-82.6670,10.0,0.8,197.51,1.56,'1111122,1111122,1111122' 
COMPS,ioos:station:USF.COMPS:ARP:1,2017-07-01T13:18:00Z,28.4330,-82.6670,10.0,0.77,194.86,1.86,'1111122,1111122,1111122' 
COMPS,ioos:station:USF.COMPS:ARP:1,2017-07-01T13:24:00Z,28.4330,-82.6670,10.0,1.01,207.81,2.15,'1111122,1111122,1111122' 
COMPS,ioos:station:USF.COMPS:ARP:1,2017-07-01T13:30:00Z,28.4330,-82.6670,10.0,1.05,191.0,2.15,'1111122,1111122,1111122' 
COMPS,ioos:station:USF.COMPS:ARP:1,2017-07-01T13:36:00Z,28.4330,-82.6670,10.0,0.89,115.87,1.76,'1111122,1111122,1111122' 
COMPS,ioos:station:USF.COMPS:ARP:1,2017-07-01T13:42:00Z,28.4330,-82.6670,10.0,0.92,201.22,1.95,'1111122,1111122,1111122' 
COMPS,ioos:station:USF.COMPS:ARP:1,2017-07-01T13:48:00Z,28.4330,-82.6670,10.0,0.47,202.42,1.17,'1111122,1111122,1111122' 
COMPS,ioos:station:USF.COMPS:ARP:1,2017-07-01T13:54:00Z,28.4330,-82.6670,10.0,1.23,168.03,2.35,'1111122,1111122,1111122' 
COMPS,ioos:station:USF.COMPS:ARP:1,2017-07-01T14:00:00Z,28.4330,-82.6670,10.0,1.11,186.79,2.35,'1111122,1111122,1111122' 
COMPS,ioos:station:USF.COMPS:ARP:1,2017-07-01T14:06:00Z,28.4330,-82.6670,10.0,1.07,249.66,2.54,'1111122,1111122,1111122' 
COMPS,ioos:station:USF.COMPS:ARP:1,2017-07-01T14:12:00Z,28.4330,-82.6670,10.0,2.15,301.86,2.64,'1111122,1111122,1111122' 
COMPS,ioos:station:USF.COMPS:ARP:1,2017-07-01T14:18:00Z,28.4330,-82.6670,10.0,1.66,300.25,2.54,'1111122,1111122,1111122' 
COMPS,ioos:station:USF.COMPS:ARP:1,2017-07-01T14:24:00Z,28.4330,-82.6670,10.0,2.08,304.22,2.74,'1111122,1111122,1111122' 
COMPS,ioos:station:USF.COMPS:ARP:1,2017-07-01T14:30:00Z,28.4330,-82.6670,10.0,2.27,296.18,2.84,'1111122,1111122,1111122' 
COMPS,ioos:station:USF.COMPS:ARP:1,2017-07-01T14:36:00Z,28.4330,-82.6670,10.0,1.88,292.29,2.35,'1111122,1111122,1111122' 
COMPS,ioos:station:USF.COMPS:ARP:1,2017-07-01T14:42:00Z,28.4330,-82.6670,10.0,1.73,299.44,2.25,'1111122,1111122,1111122' 
COMPS,ioos:station:USF.COMPS:ARP:1,2017-07-01T14:48:00Z,28.4330,-82.6670,10.0,2.16,301.68,2.84,'1111122,1111122,1111122' 
COMPS,ioos:station:USF.COMPS:ARP:1,2017-07-01T14:54:00Z,28.4330,-82.6670,10.0,2.2,291.95,3.52,'1111122,1111122,1111122' 
COMPS,ioos:station:USF.COMPS:ARP:1,2017-07-01T15:00:00Z,28.4330,-82.6670,10.0,1.6,310.42,2.25,'1111122,1111122,1111122' 
COMPS,ioos:station:USF.COMPS:ARP:1,2017-07-01T15:06:00Z,28.4330,-82.6670,10.0,1.41,313.49,2.25,'1111122,1111122,1111122' 
COMPS,ioos:station:USF.COMPS:ARP:1,2017-07-01T15:12:00Z,28.4330,-82.6670,10.0,2.21,295.52,3.52,'1111122,1111122,1111122' 
COMPS,ioos:station:USF.COMPS:ARP:1,2017-07-01T15:18:00Z,28.4330,-82.6670,10.0,2.57,306.23,3.33,'1111122,1111122,1111122' 
COMPS,ioos:station:USF.COMPS:ARP:1,2017-07-01T15:24:00Z,28.4330,-82.6670,10.0,2.86,299.36,3.72,'1111122,1111122,1111122' 
COMPS,ioos:station:USF.COMPS:ARP:1,2017-07-01T15:30:00Z,28.4330,-82.6670,10.0,2.61,305.95,3.62,'1111122,1111122,1111122' 
COMPS,ioos:station:USF.COMPS:ARP:1,2017-07-01T15:36:00Z,28.4330,-82.6670,10.0,2.76,301.85,3.33,'1111122,1111122,1111122' 
COMPS,ioos:station:USF.COMPS:ARP:1,2017-07-01T15:42:00Z,28.4330,-82.6670,10.0,3.35,305.26,4.41,'1111122,1111122,1111122' 
COMPS,ioos:station:USF.COMPS:ARP:1,2017-07-01T15:48:00Z,28.4330,-82.6670,10.0,3.06,302.59,4.01,'1111122,1111122,1111122' 
COMPS,ioos:station:USF.COMPS:ARP:1,2017-07-01T15:54:00Z,28.4330,-82.6670,10.0,4.02,290.04,7.54,'1111122,1111122,1111122' 
COMPS,ioos:station:USF.COMPS:ARP:1,2017-07-01T16:00:00Z,28.4330,-82.6670,10.0,4.9,268.68,8.13,'1111122,1111122,1111122' 
COMPS,ioos:station:USF.COMPS:ARP:1,2017-07-01T16:06:00Z,28.4330,-82.6670,10.0,4.24,251.26,8.13,'1111122,1111122,1111122' 
COMPS,ioos:station:USF.COMPS:ARP:1,2017-07-01T16:12:00Z,28.4330,-82.6670,10.0,3.91,247.16,7.25,'1111122,1111122,1111122' 
COMPS,ioos:station:USF.COMPS:ARP:1,2017-07-01T16:18:00Z,28.4330,-82.6670,10.0,3.17,239.95,5.48,'1111122,1111122,1111122' 
COMPS,ioos:station:USF.COMPS:ARP:1,2017-07-01T16:24:00Z,28.4330,-82.6670,10.0,2.52,236.59,4.41,'1111122,1111122,1111122' 
COMPS,ioos:station:USF.COMPS:ARP:1,2017-07-01T16:30:00Z,28.4330,-82.6670,10.0,2.77,215.68,5.58,'1111122,1111122,1111122' 
COMPS,ioos:station:USF.COMPS:ARP:1,2017-07-01T16:36:00Z,28.4330,-82.6670,10.0,1.95,199.0,3.13,'1111122,1111122,1111122' 
COMPS,ioos:station:USF.COMPS:ARP:1,2017-07-01T16:42:00Z,28.4330,-82.6670,10.0,2.02,226.64,3.33,'1111122,1111122,1111122' 
COMPS,ioos:station:USF.COMPS:ARP:1,2017-07-01T16:48:00Z,28.4330,-82.6670,10.0,2.24,213.16,3.91,'1111122,1111122,1111122' 
COMPS,ioos:station:USF.COMPS:ARP:1,2017-07-01T16:54:00Z,28.4330,-82.6670,10.0,2.29,223.96,4.7,'1111122,1111122,1111122' 
COMPS,ioos:station:USF.COMPS:ARP:1,2017-07-01T17:00:00Z,28.4330,-82.6670,10.0,1.74,229.42,3.72,'1111122,1111122,1111122' 
COMPS,ioos:station:USF.COMPS:ARP:1,2017-07-01T17:06:00Z,28.4330,-82.6670,10.0,0.97,254.04,2.25,'1111122,1111122,1111122' 
COMPS,ioos:station:USF.COMPS:ARP:1,2017-07-01T17:12:00Z,28.4330,-82.6670,10.0,1.66,276.28,3.33,'1111122,1111122,1111122' 
COMPS,ioos:station:USF.COMPS:ARP:1,2017-07-01T17:18:00Z,28.4330,-82.6670,10.0,1.5,128.31,3.03,'1111122,1111122,1111122' 
COMPS,ioos:station:USF.COMPS:ARP:1,2017-07-01T17:24:00Z,28.4330,-82.6670,10.0,1.63,69.16,2.15,'1111122,1111122,1111122' 
COMPS,ioos:station:USF.COMPS:ARP:1,2017-07-01T17:30:00Z,28.4330,-82.6670,10.0,0.6,88.87,2.45,'1111122,1111122,1111122' 
COMPS,ioos:station:USF.COMPS:ARP:1,2017-07-01T17:36:00Z,28.4330,-82.6670,10.0,1.06,210.02,2.15,'1111122,1111122,1111122' 
COMPS,ioos:station:USF.COMPS:ARP:1,2017-07-01T17:42:00Z,28.4330,-82.6670,10.0,0.89,223.34,1.76,'1111122,1111122,1111122' 
COMPS,ioos:station:USF.COMPS:ARP:1,2017-07-01T17:48:00Z,28.4330,-82.6670,10.0,1.35,201.56,2.64,'1111122,1111122,1111122' 
COMPS,ioos:station:USF.COMPS:ARP:1,2017-07-01T17:54:00Z,28.4330,-82.6670,10.0,1.32,230.82,3.03,'1111122,1111122,1111122' 
COMPS,ioos:station:USF.COMPS:ARP:1,2017-07-01T18:00:00Z,28.4330,-82.6670,10.0,2.28,235.79,4.11,'1111122,1111122,1111122' 
COMPS,ioos:station:USF.COMPS:ARP:1,2017-07-01T18:06:00Z,28.4330,-82.6670,10.0,1.03,196.76,2.74,'1111122,1111122,1111122' 
COMPS,ioos:station:USF.COMPS:ARP:1,2017-07-01T18:12:00Z,28.4330,-82.6670,10.0,1.5,234.36,2.84,'1111122,1111122,1111122' 
COMPS,ioos:station:USF.COMPS:ARP:1,2017-07-01T18:18:00Z,28.4330,-82.6670,10.0,1.81,252.55,3.42,'1111122,1111122,1111122' 
COMPS,ioos:station:USF.COMPS:ARP:1,2017-07-01T18:24:00Z,28.4330,-82.6670,10.0,1.86,257.17,3.42,'1111122,1111122,1111122' 
COMPS,ioos:station:USF.COMPS:ARP:1,2017-07-01T18:30:00Z,28.4330,-82.6670,10.0,2.49,252.15,3.91,'1111122,1111122,1111122' 
COMPS,ioos:station:USF.COMPS:ARP:1,2017-07-01T18:36:00Z,28.4330,-82.6670,10.0,2.1,273.92,3.52,'1111122,1111122,1111122' 
COMPS,ioos:station:USF.COMPS:ARP:1,2017-07-01T18:42:00Z,28.4330,-82.6670,10.0,1.86,252.55,3.03,'1111122,1111122,1111122' 
COMPS,ioos:station:USF.COMPS:ARP:1,2017-07-01T18:48:00Z,28.4330,-82.6670,10.0,1.82,239.74,3.23,'1111122,1111122,1111122' 
COMPS,ioos:station:USF.COMPS:ARP:1,2017-07-01T18:54:00Z,28.4330,-82.6670,10.0,1.88,255.8,3.91,'1111122,1111122,1111122' 
COMPS,ioos:station:USF.COMPS:ARP:1,2017-07-01T19:00:00Z,28.4330,-82.6670,10.0,2.08,266.36,3.72,'1111122,1111122,1111122' 
COMPS,ioos:station:USF.COMPS:ARP:1,2017-07-01T19:06:00Z,28.4330,-82.6670,10.0,2.48,263.0,3.82,'1111122,1111122,1111122' 
COMPS,ioos:station:USF.COMPS:ARP:1,2017-07-01T19:12:00Z,28.4330,-82.6670,10.0,2.53,279.28,3.42,'1111122,1111122,1111122' 
COMPS,ioos:station:USF.COMPS:ARP:1,2017-07-01T19:18:00Z,28.4330,-82.6670,10.0,2.21,257.74,3.72,'1111122,1111122,1111122' 
COMPS,ioos:station:USF.COMPS:ARP:1,2017-07-01T19:24:00Z,28.4330,-82.6670,10.0,1.61,256.8,3.13,'1111122,1111122,1111122' 
COMPS,ioos:station:USF.COMPS:ARP:1,2017-07-01T19:30:00Z,28.4330,-82.6670,10.0,1.34,234.7,2.93,'1111122,1111122,1111122' 